Date,TemperatureHighF,TemperatureAvgF,TemperatureLowF,DewpointHighF,DewpointAvgF,DewpointLowF,HumidityHigh,HumidityAvg,HumidityLow,PressureMaxIn,PressureMinIn,WindSpeedMaxMPH,WindSpeedAvgMPH,GustSpeedMaxMPH,PrecipitationSumIn
2013-1-1,27.3,19.9,7.2,24.4,12.0,-2.8,91,71,55,29.91,29.74,8,4,21,0.00
2013-1-2,17.1,9.3,-0.8,12.7,3.9,-9.1,87,78,65,30.09,29.87,6,2,23,0.00
2013-1-3,20.5,5.4,-8.1,11.1,-2.4,-13.2,87,71,40,30.11,29.95,4,0,10,0.00
2013-1-4,32.4,24.2,14.2,20.2,17.0,11.1,94,75,56,29.95,29.82,11,4,31,0.00
2013-1-5,33.1,25.7,19.8,22.3,16.5,8.0,86,69,38,30.24,29.86,10,4,25,0.00
2013-1-6,30.6,24.2,20.1,26.4,20.7,13.9,96,86,75,30.17,29.95,2,0,8,0.00
2013-1-7,30.7,24.5,17.4,28.2,18.8,12.9,92,79,52,30.36,29.99,6,2,18,0.00
2013-1-8,40.5,27.9,18.9,22.1,18.3,14.5,94,69,40,30.37,28.27,3,1,11,0.01
2013-1-9,39.4,32.4,25.9,29.1,21.0,15.5,84,63,42,30.37,30.04,10,2,27,0.31
2013-1-10,39.2,31.9,26.2,29.1,19.9,17.3,89,61,42,30.53,30.11,8,4,26,0.00
2013-1-11,33.8,29.5,24.1,33.5,21.0,14.0,100,72,50,30.52,30.17,3,1,8,0.13
2013-1-12,44.4,38.6,33.4,44.1,38.2,33.2,100,98,93,30.21,30.14,2,0,3,0.04
2013-1-13,46.8,40.4,35.8,45.8,39.6,35.0,100,97,87,30.19,30.03,2,0,4,0.04
2013-1-14,43.9,35.9,27.0,42.2,31.0,20.0,96,83,55,30.30,29.96,4,1,12,0.09
2013-1-15,30.2,25.9,23.4,22.3,19.6,17.5,89,77,62,30.34,30.21,3,1,8,0.00
2013-1-16,28.9,26.3,23.4,28.8,24.1,17.9,100,91,73,30.22,29.84,1,0,4,0.00
2013-1-17,31.3,24.4,14.9,26.3,17.5,0.4,97,76,50,30.11,29.85,5,1,13,0.00
2013-1-18,17.6,10.7,5.2,2.9,-5.2,-33.9,69,49,34,30.33,30.03,6,1,20,0.00
2013-1-19,41.4,27.9,11.8,21.7,14.1,2.8,67,56,36,30.24,29.85,3,1,11,0.00
2013-1-20,39.9,28.6,14.0,30.7,17.9,5.9,94,65,40,29.94,29.62,9,4,27,0.06
2013-1-21,19.8,13.9,9.9,12.0,4.8,-1.3,89,68,44,30.02,29.75,7,1,20,0.00
2013-1-22,14.4,8.0,1.6,11.8,-0.8,-10.0,89,68,38,30.00,29.73,8,2,21,0.00
2013-1-23,7.2,-1.9,-7.4,-2.8,-13.5,-16.7,82,57,37,30.04,29.98,7,2,21,0.00
2013-1-24,10.8,-0.9,-7.8,-10.0,-13.3,-16.2,70,55,35,30.19,29.99,8,3,24,0.00
2013-1-25,16.2,4.2,-4.9,1.9,-10.5,-18.2,81,53,21,30.25,29.99,5,1,17,0.00
2013-1-26,16.0,6.6,-0.9,0.9,-3.2,-6.9,85,65,37,30.20,29.96,5,2,15,0.00
2013-1-27,22.6,10.8,4.3,-0.3,-3.4,-8.1,76,54,27,30.42,30.20,5,2,14,0.00
2013-1-28,22.3,17.3,9.1,20.6,7.8,-11.4,93,69,27,30.40,29.97,3,0,6,0.00
2013-1-29,37.2,29.8,21.6,34.2,28.7,19.9,100,95,87,30.15,29.98,2,0,6,0.11
2013-1-30,52.3,44.3,32.2,51.2,43.7,31.9,100,98,95,30.10,29.45,6,2,17,0.30
2013-1-31,53.2,33.8,17.4,52.0,29.4,13.1,96,84,56,29.62,29.07,11,5,28,0.72
2013-2-1,21.9,15.7,10.6,14.1,5.7,-0.3,86,65,39,30.06,29.61,10,5,22,0.00
2013-2-2,23.2,12.5,3.2,11.3,2.8,-2.3,87,66,38,30.15,29.98,4,1,11,0.00
2013-2-3,28.4,16.0,8.6,9.7,7.0,4.5,88,69,37,30.00,29.73,3,0,9,0.00
2013-2-4,18.5,13.6,8.1,12.6,6.5,0.5,90,73,52,29.89,29.72,8,4,19,0.00
2013-2-5,29.5,16.6,8.1,14.9,6.2,1.5,84,64,36,29.96,29.88,2,0,7,0.00
2013-2-6,28.9,20.0,11.3,19.5,11.0,-2.9,95,70,39,30.26,29.87,7,2,24,0.00
2013-2-7,25.0,15.5,6.3,2.2,-0.6,-5.6,73,50,30,30.45,30.25,3,1,11,0.00
2013-2-8,21.2,17.6,14.4,17.5,12.0,1.1,92,80,47,30.35,29.75,5,3,17,0.00
2013-2-9,16.5,12.0,7.0,14.3,1.7,-12.9,92,66,31,30.23,29.77,10,3,27,0.00
2013-2-10,36.1,16.3,1.0,-1.9,-7.1,-23.9,68,39,10,30.41,30.23,2,1,5,0.02
2013-2-11,70.5,29.7,0.0,36.3,17.8,-23.9,100,68,10,30.28,29.77,9,2,21,0.06
2013-2-12,34.5,29.0,25.3,34.3,24.2,19.3,99,82,73,30.07,29.84,11,6,31,0.13
2013-2-13,32.7,25.5,23.9,21.5,20.2,16.2,87,81,52,30.04,29.90,3,1,10,0.00
2013-2-14,41.4,28.1,20.3,18.7,16.5,13.9,77,63,34,30.14,29.89,4,1,9,0.00
2013-2-15,46.6,33.0,26.1,25.8,22.0,16.9,93,66,37,30.15,30.09,4,1,11,0.02
2013-2-16,30.6,23.9,17.8,23.3,14.7,-0.4,92,68,44,30.16,29.93,3,1,11,0.00
2013-2-17,17.8,11.7,3.7,1.2,-3.2,-8.7,65,51,32,29.94,29.72,10,5,28,0.00
2013-2-18,24.8,10.1,-0.8,-0.7,-6.2,-15.0,72,50,20,30.29,29.93,7,2,20,0.00
2013-2-19,40.1,27.9,13.5,31.3,15.7,-2.9,100,64,33,30.30,29.78,4,1,10,0.00
2013-2-20,30.6,19.6,16.0,30.3,13.3,7.3,100,77,56,29.96,29.79,12,4,31,0.33
2013-2-21,19.9,15.2,11.5,13.6,7.7,2.9,85,72,57,30.44,29.89,11,4,31,0.04
2013-2-22,41.7,25.1,10.6,19.3,14.4,8.3,93,67,29,30.52,30.40,3,1,10,0.02
2013-2-23,29.1,27.0,24.8,28.1,24.7,18.0,100,91,68,30.42,30.07,3,2,10,0.00
2013-2-24,37.2,29.8,25.7,32.1,28.0,24.3,100,93,76,30.11,29.94,2,0,7,0.05
2013-2-25,36.3,27.8,23.7,26.1,23.4,21.2,95,84,64,30.40,30.11,2,0,6,0.00
2013-2-26,35.2,29.1,24.1,26.3,23.3,20.1,89,79,59,30.47,30.26,4,1,12,0.00
2013-2-27,33.3,30.0,26.4,33.3,29.4,23.2,100,98,83,30.26,29.82,7,2,18,0.00
2013-2-28,42.3,32.3,27.9,36.6,30.8,27.6,100,95,73,29.82,29.75,2,0,7,0.01
2013-3-1,35.8,30.5,26.1,30.8,25.4,19.7,97,82,61,29.92,29.78,4,2,14,0.00
2013-3-2,30.7,25.8,22.1,23.2,21.5,18.0,93,84,73,29.92,29.86,4,2,11,0.00
2013-3-3,26.2,21.3,17.2,20.4,17.4,14.5,94,85,69,29.88,29.82,4,2,11,0.00
2013-3-4,30.6,20.9,17.2,19.1,15.9,13.4,89,81,62,30.03,29.85,6,3,21,0.00
2013-3-5,41.0,28.0,19.8,24.3,20.1,14.8,84,73,48,30.25,30.02,4,1,11,0.01
2013-3-6,32.4,29.2,26.1,28.4,25.3,21.3,93,85,77,30.28,30.19,5,2,18,0.00
2013-3-7,32.4,27.7,24.4,27.0,23.3,20.4,92,84,69,30.27,30.22,3,2,14,0.00
2013-3-8,35.4,28.8,24.8,30.0,24.0,18.9,94,83,65,30.41,30.18,2,0,10,0.00
2013-3-9,53.6,34.1,17.1,25.3,19.4,12.7,94,59,24,30.50,30.39,3,1,10,0.00
2013-3-10,56.7,40.1,28.6,25.8,15.9,-1.8,62,42,10,30.54,30.42,3,1,10,0.07
2013-3-11,46.0,38.5,32.4,35.6,25.7,19.9,85,61,36,30.44,30.25,4,1,15,0.00
2013-3-12,46.6,43.1,33.1,46.0,41.3,31.6,100,94,85,30.26,29.93,5,2,16,0.85
2013-3-13,41.7,32.7,27.0,31.6,21.9,10.3,94,67,33,30.04,29.96,6,2,15,0.01
2013-3-14,27.0,18.7,14.4,21.0,9.8,2.9,81,68,53,30.00,29.93,8,4,22,0.00
2013-3-15,30.7,21.2,11.7,25.4,12.3,0.5,96,70,39,30.02,29.82,7,3,17,0.00
2013-3-16,35.4,23.0,13.6,19.9,9.0,-3.2,87,58,21,30.04,29.90,6,2,17,0.01
2013-3-17,30.7,20.7,13.6,12.4,2.9,-9.3,81,50,18,30.43,30.04,6,2,21,0.00
2013-3-18,36.0,20.3,7.7,19.5,-5.2,-19.7,91,38,10,30.54,30.27,3,1,12,0.00
2013-3-19,29.8,24.9,20.8,28.9,23.4,18.9,97,94,89,30.27,29.88,5,3,15,0.02
2013-3-20,27.5,21.5,17.8,20.4,16.8,14.1,93,82,62,29.97,29.88,6,3,16,0.00
2013-3-21,35.4,23.1,15.1,16.9,9.9,-5.0,86,61,20,29.97,29.81,4,1,11,0.08
2013-3-22,33.1,21.6,14.2,21.5,15.3,8.8,90,77,51,29.95,29.83,6,2,23,0.01
2013-3-23,32.9,26.5,21.4,20.1,16.6,12.4,89,67,47,30.01,29.90,8,4,24,0.00
2013-3-24,42.6,29.7,23.4,19.7,18.2,16.0,81,64,35,30.05,29.94,5,2,14,0.00
2013-3-25,38.7,31.0,25.0,22.7,20.0,17.3,75,64,49,29.97,29.73,3,1,11,0.00
2013-3-26,43.7,32.2,28.6,25.3,19.7,9.9,86,62,26,30.03,29.79,4,1,13,0.00
2013-3-27,45.9,34.2,24.8,33.2,21.6,15.5,81,61,33,30.11,30.00,5,2,13,0.01
2013-3-28,44.1,35.3,30.0,30.7,27.7,24.7,89,74,51,30.27,30.10,6,1,11,0.01
2013-3-29,45.9,35.5,29.5,30.8,28.4,24.7,92,76,46,30.29,30.23,4,1,12,0.00
2013-3-30,51.3,38.3,28.4,27.8,18.3,2.7,88,51,15,30.31,30.24,5,2,14,0.00
2013-3-31,51.6,39.4,31.6,35.1,19.4,8.3,100,50,18,30.31,29.93,4,2,21,0.33
2013-4-1,46.9,33.5,23.4,40.1,27.3,6.0,100,80,39,30.01,29.78,6,1,17,0.22
2013-4-2,31.1,22.9,18.9,17.6,11.1,5.3,85,61,39,30.12,29.98,13,4,28,0.14
2013-4-3,35.2,25.3,18.3,17.2,10.5,0.4,81,56,25,30.36,30.09,9,5,25,0.01
2013-4-4,50.9,33.5,18.9,17.1,10.5,-2.7,85,46,11,30.47,30.19,3,2,14,0.00
2013-4-5,50.2,37.7,28.4,26.0,17.2,1.4,80,47,15,30.19,29.95,6,2,17,0.00
2013-4-6,41.4,29.8,19.8,22.9,1.1,-14.4,79,34,10,30.47,30.12,8,3,21,0.00
2013-4-7,55.0,39.6,31.3,35.9,16.6,-5.4,85,44,13,30.45,30.15,5,2,13,0.05
2013-4-8,64.2,47.0,36.7,37.3,28.8,11.4,89,55,14,30.31,30.18,5,2,14,0.00
2013-4-9,56.3,48.3,44.2,46.9,39.7,29.8,96,73,44,30.28,30.11,10,3,29,0.21
2013-4-10,59.7,47.2,40.5,46.7,43.3,32.1,100,88,55,30.24,30.09,3,1,7,0.99
2013-4-11,45.7,38.1,30.9,42.9,32.2,22.9,99,81,52,30.32,30.08,3,1,8,0.07
2013-4-12,31.8,29.4,27.5,30.6,28.1,24.0,100,95,73,30.31,30.00,0,0,0,0.00
2013-4-13,44.1,35.6,28.9,35.1,31.5,28.7,100,86,62,30.15,29.99,6,1,13,0.22
2013-4-14,41.4,34.9,30.9,31.6,26.1,20.7,96,72,48,30.42,30.13,5,2,17,0.05
2013-4-15,60.6,43.3,28.6,30.4,24.7,20.5,79,51,22,30.54,30.40,3,1,8,0.00
2013-4-16,58.1,47.3,38.8,52.1,38.9,24.1,100,74,53,30.54,30.29,9,2,20,0.30
2013-4-17,60.8,47.3,38.5,41.2,30.3,16.7,94,58,21,30.55,30.32,6,2,13,0.05
2013-4-18,59.7,46.7,37.0,45.2,26.9,21.8,90,48,24,30.58,30.31,5,2,19,0.00
2013-4-19,66.2,57.3,44.6,59.5,53.6,43.5,100,88,70,30.31,29.86,6,3,18,0.45
2013-4-20,48.7,38.7,28.2,43.5,28.6,15.5,100,69,37,30.45,29.92,6,4,19,0.19
2013-4-21,50.2,34.6,23.5,17.2,8.8,-9.5,71,40,10,30.82,30.45,6,2,15,0.00
2013-4-22,55.2,39.8,29.7,25.4,11.6,-3.7,78,35,10,30.87,30.71,4,2,14,0.00
2013-4-23,43.2,33.9,28.2,35.8,29.1,23.3,97,83,68,30.72,30.34,5,2,11,0.00
2013-4-24,75.6,54.2,35.2,47.8,36.5,20.9,100,62,14,30.34,30.02,4,2,11,0.00
2013-4-25,55.8,43.5,34.5,49.9,26.6,12.9,94,56,20,30.48,30.03,7,3,23,0.14
2013-4-26,57.7,46.4,38.5,28.0,21.0,16.0,55,37,22,30.63,30.47,4,2,11,0.00
2013-4-27,65.3,49.3,36.3,31.5,20.5,0.5,74,39,10,30.63,30.51,4,2,11,0.00
2013-4-28,71.4,55.6,42.4,33.1,23.5,9.4,52,32,10,30.53,30.40,4,2,10,0.00
2013-4-29,61.2,51.5,45.3,38.1,29.5,19.6,51,43,32,30.47,30.42,4,1,11,0.00
2013-4-30,72.9,56.8,44.8,34.2,22.8,0.5,63,31,10,30.56,30.45,4,1,10,0.00
2013-5-1,76.1,59.7,45.5,33.5,19.3,7.2,47,25,10,30.69,30.55,3,1,10,0.00
2013-5-2,79.3,60.6,47.1,38.2,28.5,12.5,71,37,10,30.68,30.55,4,1,14,0.00
2013-5-3,70.0,53.4,37.4,40.0,29.0,15.2,74,44,14,30.70,30.58,4,2,11,0.00
2013-5-4,74.3,57.8,45.0,39.8,27.5,8.6,79,40,10,30.61,30.46,4,2,13,0.00
2013-5-5,74.7,55.9,37.9,32.7,19.2,6.1,62,30,10,30.51,30.43,4,1,10,0.00
2013-5-6,78.8,58.8,40.3,43.1,25.9,7.7,80,38,10,30.48,30.36,3,1,8,0.00
2013-5-7,81.9,64.0,49.3,52.2,39.0,15.9,92,52,10,30.42,30.33,3,1,11,0.00
2013-5-8,70.5,59.1,53.2,58.0,53.8,47.9,100,84,51,30.43,30.28,4,1,14,0.57
2013-5-9,67.5,56.2,50.5,56.7,52.0,46.4,100,87,51,30.29,30.14,2,0,6,0.15
2013-5-10,75.6,61.6,49.5,55.4,49.1,40.8,100,69,33,30.24,30.15,2,1,8,0.01
2013-5-11,60.4,57.6,52.3,60.2,56.1,49.9,100,95,69,30.16,29.96,2,1,10,0.37
2013-5-12,58.8,48.8,38.3,51.7,38.0,19.2,100,70,29,30.08,29.91,5,2,17,0.01
2013-5-13,43.5,37.7,34.2,29.1,25.2,20.8,77,61,40,30.27,30.06,5,2,17,0.00
2013-5-14,53.2,40.9,30.0,30.1,24.3,17.3,82,54,27,30.29,30.23,3,1,9,0.00
2013-5-15,57.9,46.6,35.4,50.2,34.9,18.6,97,67,23,30.28,29.92,3,1,10,0.09
2013-5-16,74.5,61.3,52.0,49.3,29.2,8.5,88,35,10,30.11,29.93,7,4,28,0.01
2013-5-17,66.9,53.5,42.4,38.5,32.1,18.6,80,49,16,30.47,30.10,4,1,14,0.00
2013-5-18,72.9,57.2,47.1,44.1,33.6,22.5,82,45,16,30.54,30.46,2,1,11,0.00
2013-5-19,55.6,51.1,46.4,52.3,48.9,43.1,100,93,81,30.56,30.41,1,0,7,0.15
2013-5-20,75.7,60.8,51.1,61.0,56.6,50.6,100,88,58,30.41,30.25,2,0,6,0.01
2013-5-21,87.8,69.7,52.3,64.7,60.0,52.3,100,76,33,30.27,30.13,3,1,11,0.45
2013-5-22,80.1,62.4,50.9,68.8,61.0,50.6,100,95,62,30.23,30.13,2,0,11,1.49
2013-5-23,71.1,64.8,61.0,66.6,63.4,60.5,100,95,77,30.15,30.03,1,0,10,0.25
2013-5-24,61.5,50.4,38.8,60.9,49.5,38.6,100,96,87,30.16,29.93,2,0,11,0.54
2013-5-25,42.6,38.3,34.7,40.6,37.5,32.2,100,97,90,30.15,30.05,2,1,11,0.58
2013-5-26,48.7,39.9,34.0,43.1,37.8,33.7,100,93,71,30.34,30.03,4,1,12,0.33
2013-5-27,68.5,51.9,37.8,40.0,34.4,25.8,100,58,22,30.43,30.34,3,1,10,0.01
2013-5-28,73.8,58.1,45.7,51.2,36.6,23.5,88,49,18,30.47,30.38,2,0,6,0.00
2013-5-29,77.5,60.8,52.5,66.6,58.1,51.0,100,92,63,30.39,30.25,3,0,11,0.69
2013-5-30,84.0,69.8,59.2,66.8,61.9,58.8,100,79,43,30.41,30.32,3,1,9,0.00
2013-5-31,90.7,75.6,63.1,67.1,60.3,47.4,95,64,26,30.42,30.27,2,0,7,0.00
2013-6-1,89.6,74.8,64.0,69.4,62.0,54.2,88,68,31,30.30,30.17,2,0,8,0.00
2013-6-2,87.1,71.0,61.9,67.7,64.6,60.8,100,83,42,30.19,30.03,2,0,13,0.17
2013-6-3,68.9,60.1,47.8,62.3,52.5,34.6,100,78,50,30.16,30.09,3,1,8,0.00
2013-6-4,69.8,54.0,42.6,44.2,39.4,35.0,83,60,31,30.37,30.13,2,1,12,0.00
2013-6-5,72.7,57.7,44.6,46.7,38.6,20.4,89,55,17,30.45,30.37,2,0,6,0.00
2013-6-6,68.9,57.6,49.6,50.9,44.0,36.2,100,63,33,30.42,30.31,2,0,9,0.22
2013-6-7,50.5,49.1,47.5,50.5,48.7,46.4,100,98,94,30.32,30.07,2,1,11,1.48
2013-6-8,60.1,55.0,47.8,57.6,53.2,47.6,100,94,85,30.31,29.97,2,0,9,0.21
2013-6-9,74.7,61.3,53.2,54.8,52.6,48.8,100,75,42,30.47,30.29,2,0,8,0.00
2013-6-10,66.6,58.8,55.0,57.7,53.4,48.4,100,83,59,30.47,30.21,2,1,11,0.90
2013-6-11,58.8,55.2,52.0,57.8,54.7,51.7,100,98,90,30.21,29.88,3,1,11,1.05
2013-6-12,66.6,54.8,51.1,54.5,50.8,46.1,100,88,52,30.13,29.89,2,1,12,0.20
2013-6-13,55.0,50.7,47.1,52.0,49.0,46.6,100,94,83,30.11,29.95,2,0,6,1.28
2013-6-14,73.2,57.8,46.8,55.8,48.5,39.9,100,75,34,30.14,29.93,2,0,7,0.07
2013-6-15,73.9,61.2,49.8,50.6,43.8,31.5,94,58,26,30.25,30.14,2,1,9,0.00
2013-6-16,68.0,59.7,52.0,59.8,52.1,38.0,100,78,54,30.24,30.01,3,0,12,0.13
2013-6-17,79.2,63.5,56.8,63.2,58.2,52.1,100,85,42,30.20,30.10,2,0,11,0.14
2013-6-18,69.1,58.9,51.6,61.2,55.3,47.6,100,88,73,30.22,30.17,1,0,6,0.01
2013-6-19,70.3,58.0,47.1,47.5,40.2,23.5,89,56,19,30.44,30.21,2,1,9,0.00
2013-6-20,77.2,62.4,49.3,52.1,41.2,15.6,76,50,10,30.52,30.43,2,1,6,0.00
2013-6-21,83.1,67.3,54.3,58.1,45.6,20.0,96,55,10,30.54,30.48,2,0,8,0.00
2013-6-22,83.7,69.6,59.5,61.7,58.1,52.3,92,69,39,30.51,30.39,1,0,7,0.00
2013-6-23,87.8,73.4,62.1,68.2,63.2,60.0,94,72,44,30.44,30.30,2,0,8,0.00
2013-6-24,88.9,71.9,63.0,68.6,65.4,60.7,100,83,41,30.35,30.24,3,0,9,0.40
2013-6-25,83.8,70.2,60.3,68.6,64.5,59.8,100,84,49,30.29,30.07,2,0,8,0.38
2013-6-26,75.4,67.2,64.8,68.9,65.8,64.5,100,95,77,30.15,30.06,1,0,4,0.07
2013-6-27,82.2,70.5,63.9,72.0,65.5,62.0,100,86,55,30.15,29.98,2,0,9,0.25
2013-6-28,79.9,67.6,60.6,68.3,63.9,60.4,100,89,60,29.98,29.79,2,0,9,0.98
2013-6-29,81.3,70.1,63.5,67.0,62.5,56.1,100,79,44,30.02,29.80,2,0,8,0.00
2013-6-30,82.4,69.7,64.2,69.7,65.2,60.7,100,87,55,30.23,30.01,1,0,10,0.12
2013-7-1,77.2,68.8,65.7,70.2,67.6,65.4,100,96,76,30.34,30.23,1,0,6,0.12
2013-7-2,85.1,71.9,67.6,74.4,69.3,67.4,100,92,59,30.45,30.33,1,0,8,0.67
2013-7-3,82.8,72.5,68.2,72.5,69.7,67.9,100,92,66,30.50,30.42,1,0,7,0.01
2013-7-4,88.5,76.1,69.1,72.4,69.8,65.7,100,83,48,30.52,30.41,1,0,8,0.00
2013-7-5,89.8,77.1,70.5,72.4,70.3,65.5,100,81,49,30.48,30.36,2,0,7,0.00
2013-7-6,84.2,74.2,68.9,70.2,65.9,57.7,95,77,44,30.42,30.33,2,1,9,0.00
2013-7-7,86.4,74.0,66.2,72.6,66.7,60.0,96,79,56,30.37,30.24,1,0,5,0.00
2013-7-8,79.5,72.0,68.4,70.0,67.2,63.3,100,86,62,30.35,30.24,1,0,5,0.00
2013-7-9,82.8,69.9,65.7,71.8,67.7,18.8,100,93,60,30.39,29.91,1,0,6,0.25
2013-7-10,81.5,71.0,67.6,72.5,69.4,67.4,100,95,70,29.91,29.69,1,0,9,0.27
2013-7-11,81.0,71.5,62.1,70.3,63.6,55.3,100,78,51,29.87,29.67,1,0,5,0.01
2013-7-12,81.0,68.1,60.1,62.8,57.3,53.0,86,70,43,30.06,29.86,2,0,8,0.00
2013-7-13,70.7,65.9,61.3,68.4,61.2,52.6,100,85,67,30.18,30.06,2,0,8,0.06
2013-7-14,88.3,75.2,68.0,71.1,68.4,63.5,100,82,45,30.20,30.11,1,0,4,0.01
2013-7-15,89.4,77.0,68.9,71.6,68.0,61.7,100,77,43,30.12,30.04,1,0,5,0.00
2013-7-16,88.7,75.8,67.8,69.8,63.7,56.6,91,69,37,30.11,28.26,2,0,11,0.00
2013-7-17,91.6,78.5,69.1,70.6,66.4,60.0,91,69,37,30.10,29.92,1,0,6,0.00
2013-7-18,90.9,79.7,71.6,72.0,69.1,64.9,95,72,43,29.95,29.86,2,0,6,0.00
2013-7-19,90.1,78.2,67.6,74.2,69.8,63.3,100,77,52,29.86,29.65,3,0,11,0.09
2013-7-20,83.8,71.0,61.7,68.1,64.6,59.8,100,82,52,29.75,29.61,3,0,11,0.04
2013-7-21,82.8,69.3,59.9,64.7,59.7,53.0,100,75,41,29.88,29.74,1,0,4,0.00
2013-7-22,82.2,70.9,62.4,68.4,62.1,56.3,100,75,49,29.88,29.74,1,0,7,0.00
2013-7-23,82.2,68.9,64.4,72.6,66.3,64.1,100,92,56,29.74,29.48,2,0,8,1.41
2013-7-24,75.0,65.5,51.4,66.0,59.1,47.1,100,81,50,29.85,29.52,2,0,11,0.01
2013-7-25,71.6,58.2,45.5,57.6,50.5,43.8,95,77,49,29.96,29.84,1,0,5,0.00
2013-7-26,69.4,62.3,57.9,59.5,56.4,53.3,93,82,62,29.93,28.11,1,0,6,0.00
2013-7-27,83.1,67.4,55.9,61.5,57.2,51.9,100,74,38,29.92,29.85,1,0,5,0.00
2013-7-28,75.6,65.6,59.9,67.9,62.6,56.8,100,91,62,29.88,29.83,1,0,6,0.44
2013-7-29,81.0,69.1,60.8,68.9,61.1,52.9,100,78,45,29.96,29.84,1,0,7,0.01
2013-7-30,77.2,63.5,53.6,57.2,54.3,50.6,100,74,42,30.00,29.94,2,0,7,0.00
2013-7-31,80.8,65.1,54.7,61.3,55.8,51.6,100,75,38,30.02,29.91,1,0,4,0.00
2013-8-1,72.9,62.5,58.5,63.9,59.6,53.7,100,91,70,29.92,29.72,1,0,10,0.17
2013-8-2,77.9,66.5,59.9,62.6,57.8,48.7,100,77,38,29.76,29.68,2,0,10,0.02
2013-8-3,77.9,64.2,56.7,58.8,54.0,47.2,100,72,38,29.76,29.68,2,1,9,0.00
2013-8-4,74.5,60.6,53.6,57.0,52.5,48.3,100,77,44,29.80,29.71,2,0,8,0.00
2013-8-5,73.0,59.1,50.0,51.4,45.2,35.1,100,65,27,29.91,29.79,3,1,11,0.00
2013-8-6,77.0,62.6,50.2,56.5,49.1,42.5,93,64,32,29.99,29.91,2,0,5,0.00
2013-8-7,77.2,64.6,57.2,62.2,57.2,48.5,97,79,38,30.01,29.93,2,0,8,0.00
2013-8-8,83.1,69.8,62.8,70.1,66.1,61.9,100,89,56,29.93,29.87,1,0,6,0.07
2013-8-9,71.2,68.8,66.9,71.0,68.5,66.7,99,99,99,29.88,29.66,2,0,7,2.79
2013-8-10,75.7,65.3,55.0,66.7,55.5,47.0,100,74,39,29.91,29.72,3,1,11,0.01
2013-8-11,76.8,61.5,49.3,56.6,50.7,45.4,100,72,36,29.96,29.88,1,0,5,0.00
2013-8-12,80.4,65.8,55.4,59.9,54.5,49.2,91,70,37,29.91,29.80,1,0,5,0.00
2013-8-13,70.9,63.6,59.5,67.7,61.7,57.9,100,93,83,29.80,29.57,1,0,8,1.00
2013-8-14,65.8,55.8,51.3,59.1,51.5,48.8,100,86,61,29.84,29.60,3,1,10,0.01
2013-8-15,71.1,58.7,48.6,54.4,50.1,46.3,100,75,45,29.97,29.83,2,0,8,0.00
2013-8-16,77.2,61.8,50.9,57.1,49.7,40.9,97,69,30,30.06,29.96,2,0,8,0.00
2013-8-17,81.0,64.9,55.4,59.7,53.9,48.3,94,70,34,30.14,30.06,2,0,4,0.00
2013-8-18,72.3,63.9,58.1,62.3,57.1,50.9,100,79,54,30.13,29.96,1,0,3,0.00
2013-8-19,78.3,65.4,57.2,61.1,57.8,53.5,100,78,47,29.97,29.87,1,0,5,0.00
2013-8-20,81.3,68.2,58.6,60.3,56.6,52.5,90,69,38,30.01,29.90,1,0,5,0.00
2013-8-21,84.7,70.4,61.3,63.5,60.1,52.5,95,73,35,30.04,29.91,1,0,6,0.00
2013-8-22,85.1,66.8,62.2,66.9,62.7,56.2,99,88,38,29.93,29.73,2,0,4,0.17
2013-8-23,76.1,63.3,51.4,64.3,54.2,44.7,99,76,41,30.00,29.75,1,0,8,0.00
2013-8-24,82.2,61.9,49.5,57.4,49.5,42.2,92,68,31,30.19,30.00,1,0,4,0.00
2013-8-25,81.0,64.2,54.0,58.0,51.7,40.7,86,68,26,30.22,30.04,2,0,5,0.00
2013-8-26,67.5,62.7,58.3,65.0,61.4,56.8,100,96,84,30.04,29.77,0,0,5,0.19
2013-8-27,83.3,69.2,62.4,69.2,65.8,62.0,100,90,55,29.80,29.73,1,0,6,0.04
2013-8-28,88.7,71.5,64.0,73.3,66.2,60.8,100,85,43,29.84,29.74,1,0,7,0.21
2013-8-29,72.5,64.0,59.7,65.4,62.0,59.5,100,94,71,29.93,29.82,2,0,16,0.01
2013-8-30,84.2,69.2,60.8,67.9,63.2,57.2,100,85,42,29.89,29.72,1,0,4,0.00
2013-8-31,75.2,68.4,64.4,74.1,68.0,64.1,100,99,93,29.73,29.67,1,0,5,0.61
2013-9-1,85.5,69.0,65.1,73.9,67.6,64.7,99,96,64,29.76,29.70,2,0,5,0.53
2013-9-2,70.0,66.5,64.8,69.4,66.2,64.5,99,99,99,29.72,29.67,1,0,3,1.59
2013-9-3,72.0,63.1,57.6,64.8,58.2,54.3,99,85,62,29.72,29.61,2,0,9,0.01
2013-9-4,75.0,62.6,0.0,58.1,54.1,48.8,100,75,43,29.81,29.71,2,0,10,0.00
2013-9-5,67.5,58.3,45.0,58.3,47.1,28.7,97,70,26,30.00,29.75,2,0,7,0.00
2013-9-6,68.4,51.7,41.0,43.0,38.1,30.2,89,64,26,30.08,29.95,1,0,4,0.00
2013-9-7,74.3,58.2,50.0,55.0,46.9,36.2,100,69,26,29.95,29.73,1,0,5,0.00
2013-9-8,66.6,56.4,44.1,58.3,48.5,37.7,100,77,37,29.95,29.66,2,0,8,0.01
2013-9-9,68.7,51.8,39.9,50.0,42.6,37.8,95,73,40,30.05,29.94,1,0,5,0.00
2013-9-10,76.3,63.1,52.3,70.0,61.9,49.9,100,96,77,29.97,29.88,1,0,6,0.30
2013-9-11,91.6,75.9,64.8,74.6,70.4,64.3,99,86,48,29.96,29.83,2,0,8,0.52
2013-9-12,76.3,66.2,63.0,74.9,65.9,62.7,100,99,89,29.85,29.56,3,0,11,1.28
2013-9-13,67.5,61.4,52.9,64.3,60.0,50.6,99,95,75,29.65,29.51,2,0,7,0.05
2013-9-14,54.1,51.0,45.3,50.3,48.4,45.1,100,91,80,29.91,29.67,2,0,7,0.01
2013-9-15,67.5,52.0,40.8,51.7,46.6,40.6,99,84,47,30.00,29.88,1,0,4,0.00
2013-9-16,61.5,50.8,37.9,52.4,46.4,34.1,100,85,61,30.07,29.86,2,0,10,0.01
2013-9-17,66.9,47.8,36.5,45.0,36.8,30.0,93,70,28,30.23,30.07,2,0,11,0.01
2013-9-18,73.9,54.3,41.9,50.4,43.5,37.8,100,72,29,30.14,29.99,0,0,4,0.00
2013-9-19,79.9,60.3,49.3,54.4,48.0,32.2,90,69,22,30.00,29.90,1,0,4,0.00
2013-9-20,81.9,63.0,53.1,57.4,51.7,39.3,96,70,25,29.94,29.83,2,0,8,0.00
2013-9-21,68.9,60.0,52.7,61.9,56.7,48.8,100,90,58,29.85,29.52,3,1,11,0.07
2013-9-22,61.7,52.8,44.4,61.4,48.7,39.7,99,86,58,29.72,29.48,4,1,12,0.58
2013-9-23,58.5,45.3,37.9,42.1,39.3,36.9,100,81,51,29.85,29.70,2,1,10,0.00
2013-9-24,64.4,47.2,37.4,45.9,40.2,37.0,100,80,39,29.85,29.71,2,1,8,0.00
2013-9-25,71.6,52.8,40.5,50.3,45.7,40.2,100,80,42,29.82,29.73,1,0,5,0.00
2013-9-26,68.7,52.2,44.4,49.7,46.0,40.2,100,82,36,29.96,29.81,1,0,5,0.00
2013-9-27,56.1,50.6,45.9,51.2,48.3,45.5,100,92,78,30.11,29.96,1,0,4,0.00
2013-9-28,76.6,57.0,48.0,53.4,49.5,42.6,100,80,31,30.16,30.08,1,0,5,0.00
2013-9-29,74.5,57.8,50.4,52.6,49.3,43.6,100,77,35,30.09,29.92,1,0,7,0.00
2013-9-30,76.3,57.2,48.2,53.2,47.8,43.0,90,73,34,29.94,29.82,1,0,4,0.00
2013-10-1,75.6,60.0,50.4,57.6,52.2,48.5,95,78,44,29.84,29.76,2,0,8,0.00
2013-10-2,71.8,61.0,54.7,60.3,55.7,51.9,97,83,63,29.86,29.75,3,1,12,0.00
2013-10-3,75.9,58.9,48.9,52.9,46.5,33.3,92,67,22,29.96,29.86,1,0,6,0.00
2013-10-4,59.0,56.6,54.1,58.5,53.1,44.7,100,89,62,29.93,29.88,1,0,5,0.26
2013-10-5,61.0,57.7,55.2,60.0,57.0,54.0,100,97,82,29.95,29.89,1,0,4,0.07
2013-10-6,56.8,53.1,49.3,56.6,52.8,49.0,99,99,99,29.99,29.92,2,1,8,0.32
2013-10-7,66.6,56.3,49.1,65.1,55.8,47.3,100,98,92,29.93,29.57,4,1,15,0.61
2013-10-8,63.7,49.6,43.2,47.5,39.3,31.9,94,71,34,30.18,29.76,4,1,12,0.01
2013-10-9,66.0,48.4,39.0,40.7,34.7,22.3,87,64,20,30.27,30.15,2,1,10,0.00
2013-10-10,60.6,51.0,41.0,41.1,31.1,2.1,95,52,18,30.16,29.99,2,0,6,0.00
2013-10-11,74.7,59.0,50.2,38.9,24.6,5.0,56,31,10,30.00,29.93,3,1,8,0.00
2013-10-12,64.6,53.2,48.7,51.5,46.7,35.8,100,80,55,30.17,29.98,3,1,10,0.00
2013-10-13,68.0,51.8,43.7,48.5,45.5,39.7,99,82,42,30.22,30.15,2,1,10,0.00
2013-10-14,72.0,54.2,44.2,53.9,47.4,43.8,100,81,38,30.18,30.05,2,0,6,0.00
2013-10-15,61.3,56.6,52.7,54.3,53.0,50.4,100,88,75,30.08,29.96,2,0,8,0.00
2013-10-16,62.6,53.8,49.1,53.4,49.2,42.6,100,85,62,29.96,29.72,1,0,5,0.00
2013-10-17,69.6,57.3,52.5,54.3,49.9,41.9,100,79,38,29.73,29.50,3,1,8,0.09
2013-10-18,61.2,52.7,47.3,57.7,44.2,31.3,99,75,39,29.72,29.45,6,3,21,0.13
2013-10-19,63.0,50.8,42.3,44.6,38.7,33.6,86,65,37,29.77,29.55,3,1,13,0.00
2013-10-20,54.7,45.9,40.5,48.2,36.2,28.1,100,71,36,29.83,29.52,6,3,22,0.04
2013-10-21,66.6,50.2,38.7,37.5,34.8,30.8,85,59,28,29.91,29.76,3,1,11,0.00
2013-10-22,50.0,44.7,38.7,49.7,40.5,28.4,100,86,64,29.76,29.55,4,1,11,0.08
2013-10-23,50.0,39.8,32.7,33.3,29.8,23.6,87,68,39,29.60,29.41,3,1,9,0.00
2013-10-24,47.7,36.9,31.3,34.5,29.5,21.8,100,77,38,29.69,29.48,6,2,22,0.02
2013-10-25,44.6,35.9,32.0,33.9,29.3,23.8,100,78,46,29.91,29.68,6,2,17,0.01
2013-10-26,45.1,38.9,31.8,33.7,28.9,21.6,100,70,41,29.91,29.62,4,2,16,0.00
2013-10-27,44.2,39.2,33.6,33.2,30.5,26.1,88,71,50,29.84,29.58,6,2,17,0.00
2013-10-28,50.2,37.7,28.9,34.4,28.8,19.9,91,72,41,30.10,29.83,7,2,25,0.00
2013-10-29,44.6,32.2,25.2,20.9,17.1,9.6,78,56,25,30.18,30.09,3,1,8,0.00
2013-10-30,47.5,37.2,30.2,37.5,29.9,11.6,97,76,45,30.09,29.98,3,1,8,0.04
2013-10-31,56.3,47.8,39.4,56.0,46.8,35.5,100,96,82,30.01,29.54,5,1,12,0.93
2013-11-1,63.0,57.2,48.9,59.8,52.5,39.7,100,86,55,29.55,29.26,6,3,23,0.99
2013-11-2,58.8,47.4,40.1,45.3,40.3,37.4,100,78,47,29.60,29.44,3,1,11,0.05
2013-11-3,40.1,32.5,23.7,38.2,22.3,7.3,96,68,38,30.17,29.60,4,2,11,0.01
2013-11-4,42.8,28.9,20.7,15.4,11.3,0.6,70,51,17,30.39,30.16,3,1,8,0.00
2013-11-5,47.8,36.2,26.4,33.8,24.2,11.8,82,62,48,30.39,30.23,2,1,8,0.00
2013-11-6,56.7,45.5,37.6,46.4,40.3,33.7,100,83,56,30.24,29.80,4,2,13,0.00
2013-11-7,52.7,44.5,32.4,51.4,40.7,18.9,100,87,56,29.80,29.55,5,3,16,0.46
2013-11-8,38.1,31.5,28.0,31.8,25.4,17.8,100,79,56,29.85,29.62,8,3,27,0.01
2013-11-9,36.9,31.1,24.4,27.8,23.6,19.7,85,74,57,29.96,29.72,4,1,13,0.00
2013-11-10,43.2,36.7,32.0,39.1,32.6,26.4,100,86,73,29.73,29.53,8,2,26,0.11
2013-11-11,42.4,36.4,30.6,30.6,26.2,23.7,81,67,52,29.86,29.67,9,3,26,0.00
2013-11-12,38.5,25.5,18.5,33.7,18.8,11.8,100,76,52,29.94,29.66,6,3,16,0.01
2013-11-13,29.7,21.7,14.2,18.2,12.0,5.0,85,67,39,30.02,29.86,5,2,13,0.00
2013-11-14,45.3,35.2,24.1,22.5,17.8,10.6,71,50,37,29.89,29.82,6,2,18,0.00
2013-11-15,55.9,41.9,33.3,16.0,8.8,-2.4,45,27,10,29.98,29.88,2,1,5,0.00
2013-11-16,58.3,46.0,39.9,34.3,23.5,14.4,68,42,28,30.08,29.96,2,1,7,0.00
2013-11-17,53.4,47.3,42.4,53.2,45.2,33.1,100,93,65,30.06,29.59,5,2,10,0.04
2013-11-18,58.8,50.4,34.7,56.2,40.2,27.3,99,71,37,29.59,29.34,7,3,21,0.32
2013-11-19,34.7,29.1,21.9,28.0,19.7,14.8,85,68,53,30.06,29.52,8,4,24,0.00
2013-11-20,38.8,25.9,17.4,16.2,12.2,1.6,82,58,25,30.33,30.05,4,1,12,0.00
2013-11-21,42.3,32.7,24.8,29.5,14.6,-0.6,81,50,23,30.33,30.11,3,1,8,0.00
2013-11-22,43.2,39.7,34.7,42.9,38.6,29.0,99,96,79,30.11,29.65,7,1,19,0.12
2013-11-23,40.6,28.3,17.1,40.2,23.0,11.9,99,81,60,29.74,29.56,8,4,24,0.01
2013-11-24,18.7,12.6,6.8,13.9,2.8,-5.9,95,67,35,29.92,29.57,10,5,26,0.00
2013-11-25,28.9,16.4,5.2,13.7,4.8,-6.0,73,60,43,30.07,29.92,7,2,15,0.00
2013-11-26,31.8,25.7,21.0,31.6,24.1,11.4,100,94,61,30.00,29.74,3,0,8,0.00
2013-11-27,46.0,34.5,27.1,45.8,34.2,26.9,99,99,99,29.73,29.14,5,1,14,1.30
2013-11-28,27.1,18.2,13.1,26.9,12.8,6.0,100,80,56,30.11,29.32,0,0,0,0.00
2013-11-29,25.9,16.7,11.5,14.1,11.2,7.3,94,80,53,30.39,30.11,0,0,0,0.00
2013-11-30,26.2,17.0,7.3,17.8,6.0,1.6,89,64,35,30.42,30.09,0,0,0,0.00
2013-12-1,37.9,31.2,23.4,33.0,28.2,17.8,100,89,73,30.09,29.77,1,0,4,0.04
2013-12-2,38.3,33.5,30.2,35.1,32.2,29.3,100,95,83,29.77,29.66,2,0,5,0.01
2013-12-3,40.8,34.2,30.2,35.2,31.8,28.0,100,91,77,29.74,29.66,3,1,8,0.00
2013-12-4,41.4,33.3,26.2,34.6,28.1,24.1,97,82,53,29.92,29.73,2,1,8,0.00
2013-12-5,50.9,44.4,37.6,50.6,43.4,33.8,100,96,84,29.92,29.71,2,1,8,0.04
2013-12-6,50.7,36.7,28.6,50.5,36.5,28.3,100,99,96,29.91,29.67,5,1,13,0.08
2013-12-7,31.3,26.0,21.6,28.2,21.7,15.4,100,84,58,30.15,29.84,0,0,0,0.00
2013-12-8,27.3,21.6,18.1,17.1,12.8,9.5,82,69,51,30.25,30.14,0,0,0,0.00
2013-12-9,33.1,25.7,18.5,33.1,24.7,13.8,100,96,74,30.14,29.64,0,0,0,0.00
2013-12-10,30.2,23.8,16.2,28.7,19.8,11.7,100,85,74,29.70,29.55,0,0,0,0.00
2013-12-11,22.8,18.3,14.5,17.0,11.9,5.8,95,76,62,29.88,29.69,0,0,0,0.00
2013-12-12,16.9,11.8,6.6,14.2,3.1,-2.7,91,69,46,29.95,29.69,0,0,0,0.00
2013-12-13,18.3,13.2,5.2,16.2,7.6,-3.4,93,78,60,30.03,29.64,0,0,0,0.00
2013-12-14,12.7,6.5,3.4,11.6,0.1,-6.8,95,75,48,30.19,29.77,0,0,0,0.00
2013-12-15,26.6,18.9,12.2,25.5,17.5,10.9,100,94,84,29.77,29.25,8,3,24,0.00
2013-12-16,19.8,13.1,4.6,18.4,6.4,-0.6,95,74,59,29.85,29.44,8,4,27,0.00
2013-12-17,15.8,8.6,1.0,14.1,5.6,-3.1,94,87,79,29.88,29.66,2,1,8,0.00
2013-12-18,23.0,19.8,14.9,19.8,17.2,13.4,96,90,79,29.76,29.63,4,1,14,0.00
2013-12-19,37.8,29.1,18.7,28.0,21.5,17.5,100,74,52,29.84,29.68,6,2,21,0.00
2013-12-20,40.6,36.6,32.2,38.3,31.6,26.4,100,82,65,29.84,29.69,2,1,6,0.19
2013-12-21,51.1,44.0,37.6,48.0,41.8,35.1,100,92,72,29.75,29.65,2,1,5,0.30
2013-12-22,57.0,53.5,47.3,56.8,53.3,47.0,100,99,96,29.74,29.54,4,2,14,0.25
2013-12-23,53.1,41.2,28.2,52.8,40.6,24.3,100,98,86,29.88,29.72,4,1,13,0.20
2013-12-24,28.2,21.4,11.3,24.9,14.8,4.3,87,76,58,29.94,29.80,0,0,0,0.00
2013-12-25,20.3,10.8,2.5,5.9,1.9,-3.0,85,67,44,30.15,29.93,0,0,0,0.00
2013-12-26,24.1,20.8,14.2,23.9,17.5,2.9,100,87,61,30.09,29.81,0,0,0,0.00
2013-12-27,28.2,23.4,19.6,21.4,17.8,13.6,87,79,58,29.96,29.90,0,0,0,0.00
2013-12-28,38.1,29.7,20.5,28.7,24.6,19.8,100,82,60,29.92,29.75,4,1,17,0.02
2013-12-29,40.5,34.7,30.6,33.6,29.6,26.7,100,82,60,29.80,29.32,2,0,6,0.59
2013-12-30,51.1,24.4,5.0,51.1,21.1,0.5,100,87,60,29.99,29.39,4,0,9,0.06
2013-12-31,15.8,9.9,2.1,14.7,5.0,-1.2,96,81,63,29.99,29.83,9,2,21,0.00
2014-1-1,20.8,11.6,8.2,9.1,5.5,0.2,89,76,53,30.16,29.96,6,2,17,0.00
2014-1-2,10.9,7.1,1.8,8.7,4.6,-1.1,91,89,84,30.13,29.64,5,2,18,0.00